Lapse_Rate
5.2 2.9 2.5 2.9 1.9 2.2 3.0 2.9 3.5 3.5 3.7 3.8 4.0 4.6 3.9 3.3 4.2 4.4 4.7 5.3 5.2 5.6 5.6 5.4 5.7 5.5 5.3
5.1 2.3 2.2 1.9 2.2 2.0 2.0 1.8 2.5 2.7 2.6 3.4 3.8 3.8 3.2 3.0 3.4 4.0 4.5 4.4 4.7 5.1 5.2 5.0 5.1 4.9 4.8
5.4 2.9 2.1 1.2 1.2 1.0 1.0 1.0 0.8 1.7 3.0 3.4 3.2 2.9 2.8 2.6 3.0 3.6 4.0 4.0 3.6 4.1 3.7 3.6 4.1 4.3 4.5
4.8 4.1 2.8 1.7 1.9 2.0 1.4 0.3 1.1 1.0 2.7 3.3 3.7 3.1 2.7 2.4 2.8 2.8 2.9 3.1 3.3 3.1 2.9 2.8 3.2 3.6 4.2
4.9 4.2 3.3 2.9 3.2 2.8 3.2 1.8 1.2 0.2 2.6 2.7 3.0 2.7 3.1 3.4 2.9 2.7 2.5 2.7 3.0 3.1 3.5 3.5 3.5 3.7 3.8
6.4 6.2 6.2 4.4 4.2 3.4 3.4 2.1 2.1 -0.1 1.2 2.6 2.5 2.1 2.3 2.8 2.4 2.1 2.4 2.9 3.1 3.1 3.1 4.6 3.4 3.7 3.6
7.1 6.8 6.3 6.7 6.0 4.7 3.7 3.1 4.6 2.0 2.3 3.3 1.2 2.3 2.2 2.6 2.6 2.2 2.3 2.8 3.1 3.2 2.0 3.4 3.7 3.8 3.7
7.4 7.1 6.3 5.9 5.3 5.2 5.3 4.9 3.6 1.6 3.1 3.9 1.1 2.3 1.3 1.8 2.6 2.2 2.4 2.8 2.7 2.7 2.2 3.8 3.8 3.7 3.6
8.6 8.4 7.5 6.5 6.6 5.5 4.9 5.0 3.6 1.2 1.9 1.2 0.9 0.9 1.6 1.0 2.6 2.8 2.4 2.7 2.4 3.4 5.0 4.8 2.9 3.6 2.7
6.1 6.3 6.7 6.7 6.9 6.0 5.2 5.5 5.2 1.9 1.0 2.7 0.4 0.4 1.9 -0.4 1.2 3.3 3.0 3.3 3.8 4.2 4.6 5.3 5.2 2.7 2.3
6.6 5.9 5.8 6.4 6.0 5.2 5.6 5.3 5.3 4.6 2.0 3.0 1.1 0.9 1.0 0.0 -0.1 2.1 2.3 2.8 3.5 4.4 5.1 5.2 4.8 3.5 2.0
7.5 7.6 7.3 7.1 7.1 5.9 5.1 4.4 4.1 4.3 2.6 3.5 1.1 3.2 1.8 0.5 0.3 0.7 1.8 2.3 2.2 3.1 3.3 4.7 4.6 3.6 3.2
8.0 7.9 8.0 6.7 6.6 7.2 3.6 3.0 1.7 1.7 2.7 2.6 2.6 1.9 3.1 2.4 -0.5 -0.1 1.1 1.2 2.9 3.1 3.0 2.9 1.9 1.3 0.4
8.2 8.2 7.4 7.3 7.1 6.9 6.1 4.2 3.9 1.7 0.9 1.1 0.8 2.9 3.5 2.5 0.8 -0.1 0.8 0.8 2.3 3.2 2.8 2.5 2.3 2.4 1.2
7.9 8.1 7.3 7.2 6.8 6.4 5.9 5.8 5.1 3.8 2.3 1.6 1.1 1.8 2.3 2.8 2.0 1.7 1.1 1.8 2.3 2.5 3.2 2.8 2.1 2.2 1.8
8.0 7.9 8.0 7.5 6.9 6.9 5.7 5.7 5.7 5.1 3.1 1.8 2.2 3.5 2.7 2.1 1.9 2.1 1.9 2.1 2.8 3.4 3.2 3.1 3.0 2.3 2.9
8.0 7.9 7.6 7.9 7.1 6.4 5.8 5.8 6.3 6.0 4.4 2.7 3.1 4.4 4.6 4.2 2.2 1.8 2.1 2.5 3.0 4.0 3.5 3.6 3.6 2.5 2.2
Wind_Speed
5 4 5 6 4 5 11 10 12 19 25 28 27 28 27 26 23 23 21 19 18 15 13 12 11 10 9
4 4 5 4 3 4 5 8 9 15 22 26 29 29 28 28 26 23 20 19 17 15 13 11 11 10 10
3 2 2 1 1 2 3 4 5 10 14 15 15 17 21 25 25 23 22 19 18 16 15 12 11 10 11
4 2 1 0 1 3 4 3 4 2 8 13 17 22 25 27 27 26 24 20 19 17 15 13 9 9 11
4 1 1 1 3 3 4 2 3 2 4 5 7 7 12 22 21 23 23 23 21 18 15 12 10 10 10
6 7 5 3 3 3 3 2 2 4 4 6 8 8 8 14 23 25 25 23 21 19 16 12 11 11 12
8 8 9 7 6 5 6 5 7 3 7 8 5 8 8 13 26 28 28 24 21 20 17 13 11 11 13
6 8 7 8 9 9 8 10 4 2 8 7 4 4 6 7 27 29 27 26 23 21 18 16 13 12 11
10 12 14 16 12 7 8 6 4 3 7 3 3 2 2 3 11 27 27 25 23 21 18 16 14 12 10
11 11 12 10 14 8 6 9 8 2 4 7 4 4 2 2 3 9 14 24 23 21 19 16 14 7 4
10 9 8 7 7 6 6 8 9 7 7 9 5 4 2 3 3 6 9 10 9 15 20 18 17 11 3
8 7 7 8 6 7 8 8 6 9 7 14 3 9 6 4 4 4 5 8 7 8 7 17 17 13 10
9 9 7 7 9 8 6 6 5 4 5 9 9 5 4 3 5 7 10 5 7 8 7 7 5 3 2
8 9 6 6 7 8 8 5 4 2 3 4 6 8 6 3 2 7 6 6 9 8 8 5 4 8 4
7 8 6 7 8 7 8 7 7 3 3 1 4 6 4 4 4 8 7 4 10 10 10 6 3 4 4
6 7 7 7 8 8 6 6 7 6 5 3 5 5 3 3 7 8 4 4 8 10 10 8 6 4 7
6 6 7 7 10 8 7 6 6 6 4 5 7 6 6 3 1 6 8 6 7 8 8 6 6 6 4
Wind_Direction
231 185 190 211 221 225 232 232 245 239 239 242 229 203 175 168 164 167 172 177 189 198 213 215 229 240 252
250 200 197 206 207 212 234 242 240 245 237 239 211 186 169 162 158 162 167 176 184 198 212 215 224 233 250
265 174 151 130 286 304 264 250 239 242 232 191 160 157 150 149 154 162 170 174 179 189 197 206 220 237 254
327 305 236 163 181 235 263 239 251 248 210 187 172 165 161 161 164 170 170 172 183 188 195 203 210 235 253
304 264 213 229 209 212 240 230 221 218 203 185 173 174 176 171 169 170 170 174 183 190 198 201 215 236 253
303 292 284 218 224 208 214 160 264 201 197 209 189 184 181 178 178 172 174 181 185 186 192 210 223 240 253
301 287 290 288 289 237 209 206 235 205 205 213 206 197 190 187 180 175 176 181 187 192 181 204 223 239 256
285 302 307 316 307 305 264 234 239 153 205 222 168 222 187 190 187 178 178 179 184 190 188 196 214 231 248
266 271 281 288 273 290 285 248 231 222 199 153 192 138 190 192 188 182 177 180 184 188 199 200 199 212 244
308 301 291 282 275 253 275 255 240 206 205 188 165 150 195 246 181 185 178 180 188 189 190 199 206 193 213
292 289 294 292 288 266 262 268 243 239 192 181 178 176 147 157 169 196 171 173 179 188 192 194 193 197 215
293 294 297 299 299 288 268 268 260 256 183 193 171 194 176 154 178 183 179 168 165 176 174 183 191 201 212
294 295 294 306 295 293 279 267 246 231 217 201 193 174 197 233 159 174 158 167 171 168 161 169 162 152 164
286 289 294 292 297 291 271 244 242 209 327 167 184 187 190 188 177 152 161 158 168 165 151 152 147 164 172
284 288 294 298 297 292 279 258 235 214 170 62 102 107 96 160 149 154 163 144 163 152 152 156 141 165 170
285 295 291 299 298 295 263 241 241 223 181 170 157 144 128 46 40 147 134 139 156 160 154 153 161 171 176
285 289 294 290 297 298 290 260 243 231 188 181 187 188 164 137 132 78 137 143 145 158 148 155 163 164 165